Location: Wien
(48.2082°N, 16.3738°E)
Time: 11:56:36
(UTC+01:00)

Vanguard 3 - All Passes

Search period start: 22 February 2024 00:00
Search period end: 03 March 2024 00:00
Orbit: 508 x 3239 km, 33.3° (Epoch: 22 February)

Date Brightness Start Highest point End Pass type
(mag) Time Alt. Az. Time Alt. Az. Time Alt. Az.
22 Feb - 01:41:59 10° W 01:54:40 33° SSW 02:02:50 10° SE night (unlit)
22 Feb - 04:01:20 10° WSW 04:04:48 12° SW 04:07:48 10° SSW visible
22 Feb - 17:54:13 10° SE 17:57:18 11° SE 18:00:23 10° ESE visible
22 Feb - 19:54:42 10° SSW 20:09:52 29° SSE 20:23:06 10° E visible
22 Feb - 22:06:17 10° SW 22:23:39 43° S 22:36:18 10° ESE visible
23 Feb - 00:21:27 10° WSW 00:37:01 42° SSW 00:47:04 10° SE visible
23 Feb - 02:38:35 10° W 02:48:25 23° SW 02:55:15 10° SSE night (unlit)
23 Feb - 18:39:02 10° S 18:51:20 21° SE 19:03:09 10° E visible
23 Feb - 20:47:38 10° SW 21:04:41 39° SSE 21:18:38 10° E visible
23 Feb - 23:01:19 10° WSW 23:18:38 46° S 23:30:36 10° ESE visible
24 Feb - 01:17:31 10° W 01:31:18 34° SSW 01:40:22 10° SE visible
24 Feb - 03:37:05 10° WSW 03:41:37 13° SW 03:45:26 10° SSW night (unlit)
24 Feb - 17:27:23 10° SSE 17:33:17 12° SE 17:39:15 10° ESE daylight
24 Feb - 19:30:13 10° SSW 19:45:46 32° SSE 20:00:03 10° E visible
24 Feb - 21:41:50 10° SW 21:59:43 45° S 22:13:28 10° ESE visible
24 Feb - 23:56:55 10° WSW 00:13:25 43° SSW 00:24:29 10° SE visible
25 Feb - 02:14:12 10° W 02:25:05 24° SW 02:32:44 10° S night (unlit)
25 Feb - 18:14:29 10° S 18:27:12 23° SE 18:39:59 10° E visible
25 Feb - 20:23:19 10° SW 20:40:35 41° SSE 20:55:35 10° E visible
25 Feb - 22:36:51 10° WSW 22:54:47 47° S 23:07:50 10° ESE visible
26 Feb - 00:53:01 10° W 01:07:47 35° SSW 01:17:45 10° SSE visible
26 Feb - 03:12:49 10° WSW 03:18:18 13° SW 03:22:50 10° SSW night (unlit)
26 Feb - 17:02:01 10° SSE 17:09:13 13° SE 17:16:42 10° ESE daylight
26 Feb - 19:06:00 10° SSW 19:21:34 33° SSE 19:36:44 10° E visible
26 Feb - 21:17:32 10° WSW 21:35:40 47° S 21:50:28 10° ESE visible
26 Feb - 23:32:27 10° WSW 23:49:39 44° SSW 00:01:44 10° SE visible
27 Feb - 01:49:47 10° W 02:01:35 25° SW 02:10:02 10° S night (unlit)
27 Feb - 17:50:14 10° S 18:03:01 24° SE 18:16:33 10° E visible
27 Feb - 19:59:12 10° SW 20:16:22 42° SSE 20:32:19 10° E visible
27 Feb - 22:12:32 10° WSW 22:30:48 48° S 22:44:54 10° ESE visible
28 Feb - 00:28:32 10° W 00:44:04 36° SSW 00:54:59 10° SSE visible
28 Feb - 02:48:32 10° WSW 02:54:49 14° SW 03:00:01 10° SSW night (unlit)
28 Feb - 16:37:19 10° SSE 16:45:08 15° SE 16:53:32 10° ESE daylight
28 Feb - 18:42:00 10° SSW 18:57:19 35° SSE 19:13:14 10° E visible
28 Feb - 20:53:25 10° WSW 21:11:29 48° S 21:27:17 10° ESE visible
28 Feb - 23:08:04 10° W 23:25:44 44° SSW 23:38:50 10° SE visible
29 Feb - 01:25:21 10° W 01:37:56 25° SW 01:47:11 10° S visible
29 Feb - 17:26:16 10° S 17:38:49 25° SE 17:52:51 10° E daylight
29 Feb - 19:35:16 10° SW 19:52:06 44° SSE 20:08:51 10° E visible
29 Feb - 21:48:21 10° WSW 22:06:40 49° S 22:21:47 10° ESE visible
01 Mar - 00:04:06 10° W 00:20:13 36° SSW 00:32:03 10° SSE visible
01 Mar - 02:24:17 10° WSW 02:31:11 14° SW 02:36:59 10° SSW night (unlit)
01 Mar - 16:13:06 10° SSE 16:21:04 15° SE 16:29:58 10° ESE daylight
01 Mar - 18:18:13 10° SSW 18:33:03 36° SSE 18:49:30 10° E visible
01 Mar - 20:29:28 10° WSW 20:47:14 49° S 21:03:54 10° ESE visible
01 Mar - 22:43:49 10° W 23:01:40 45° SSW 23:15:45 10° SE visible
02 Mar - 01:00:57 10° W 01:14:07 25° SW 01:24:10 10° S visible
02 Mar - 17:02:34 10° S 17:14:39 26° SE 17:28:55 10° E daylight
02 Mar - 19:11:32 10° SW 19:27:48 45° SSE 19:45:11 10° E visible
02 Mar - 21:24:20 10° WSW 21:42:27 49° S 21:58:29 10° ESE visible
